SCP
0 0 0 0 0 0 0 0 0 0 0 1 0 0 0 0 0 0 0 0 0 0 0 0 0 0 0 0 0 0 0 0 0 0 0 0 0 0
0 0 0 0 0 0 0 0 0 0 0 0 1 1 0 0 0 0 0 0 0 0 0 0 0 0 0 0 0 0 0 0 0 0 0 0 0 0
0 0 0 0 0 0 1 1 1 0 0 0 2 1 0 0 0 0 0 0 0 0 0 0 0 0 0 0 0 0 0 0 0 0 0 0 0 0
0 0 0 0 0 0 0 0 0 1 1 0 1 0 0 0 0 0 0 0 0 0 0 0 0 0 0 0 0 0 0 0 0 0 0 0 0 -0
0 0 0 0 0 0 0 0 0 1 1 1 1 0 0 0 0 0 0 0 0 0 0 0 0 0 0 0 0 0 0 0 0 0 0 0 0 0
0 0 0 0 0 0 0 0 0 1 1 1 1 0 0 0 0 0 0 0 0 0 0 0 0 0 0 0 0 0 0 0 0 0 0 0 0 0
0 0 0 0 0 0 0 0 0 0 1 1 1 0 0 0 0 0 0 0 0 0 0 0 0 0 0 0 0 0 0 0 0 0 0 0 0 0
0 0 0 0 0 0 0 0 0 0 0 0 1 1 0 0 0 0 0 0 0 0 0 0 0 0 0 0 0 0 0 0 0 0 0 0 0 0
0 0 0 0 0 0 0 0 0 0 0 0 0 0 1 0 0 0 0 0 0 0 0 0 0 0 0 0 0 0 0 0 0 0 0 0 0 0
0 0 0 0 0 0 0 0 0 0 0 0 0 0 0 0 0 0 0 0 0 0 0 0 0 0 0 0 0 0 0 0 0 0 0 0 0 0
0 0 0 0 0 0 0 0 0 0 0 0 0 0 0 0 0 0 0 0 0 0 0 0 0 0 0 0 0 0 0 0 0 0 0 0 0 0
0 0 -0 -0 0 0 0 0 0 0 0 0 0 0 0 0 0 0 0 0 0 0 0 0 0 0 0 0 0 0 0 0 0 0 0 -0 -0 0
0 0 0 0 0 0 0 0 0 0 0 0 0 0 0 0 0 0 0 0 0 0 0 0 0 0 0 0 0 0 0 0 0 0 0 0 -0 -0
0 0 0 0 0 0 0 0 0 0 0 0 0 0 0 0 0 0 0 0 0 1 0 0 0 0 0 0 0 0 0 0 0 0 0 0 -0 -0
0 0 0 0 0 0 0 0 0 0 0 0 0 0 0 0 0 0 0 0 0 0 0 0 0 0 0 0 0 0 0 0 0 0 0 0 0 -0
0 0 0 0 0 0 0 0 0 0 0 0 0 0 0 0 0 0 0 0 0 0 0 0 0 0 0 0 0 0 0 0 0 0 0 0 -0 -0
0 0 0 0 0 0 0 0 0 0 0 0 0 0 0 0 0 0 0 0 0 0 0 0 0 0 0 0 0 0 0 0 0 0 0 0 -0 -0
0 0 0 0 0 0 0 0 0 0 0 0 0 0 0 0 0 0 0 0 0 0 0 0 0 0 0 0 0 0 0 0 0 0 0 -0 -0 0
0 0 0 0 0 0 0 0 0 0 0 0 0 0 0 0 0 0 0 0 0 0 0 0 0 0 0 0 0 0 0 0 0 0 0 -0 -0 0
0 0 0 0 0 0 0 0 0 0 0 0 0 0 0 0 0 0 0 0 0 0 0 0 0 0 0 0 0 0 0 0 0 0 -0 -0 -0 -0
0 0 0 0 0 0 0 0 0 0 0 0 0 0 0 0 0 0 0 0 0 0 0 0 0 0 0 0 0 0 0 0 0 0 -0 -0 -0 0
0 0 0 0 0 0 0 0 0 0 0 0 0 0 0 0 0 0 0 0 0 0 0 0 0 0 0 0 0 0 0 0 0 -0 -0 -0 0 0
0 0 0 0 0 0 0 0 0 0 0 0 0 0 0 0 0 0 0 0 0 0 0 0 0 0 0 0 0 0 0 0 0 0 0 -0 -0 0
Wind_Speed_500mb
26 28 33 30 33 36 39 37 38 39 34 32 22 29 36 45 46 32 32 28 23 20 19 20 20 19 23 19 23 29 29 28 34 42 47 46 40 40
16 24 22 25 30 31 36 35 38 40 43 30 22 29 26 38 42 34 37 28 27 21 18 17 18 17 17 15 21 25 32 32 37 43 45 49 45 46
17 17 21 23 23 26 35 34 36 39 41 35 26 33 33 31 40 37 37 35 28 21 15 14 14 16 17 16 21 25 28 32 34 42 46 48 48 47
23 22 19 21 23 23 29 35 34 34 39 38 35 42 39 40 40 39 33 33 29 24 18 15 13 15 18 19 21 22 25 29 35 42 46 47 44 37
25 24 22 20 24 19 28 30 33 33 34 33 39 45 44 42 43 43 39 32 28 25 23 19 15 14 18 22 22 22 23 28 33 40 46 39 38 34
28 29 26 22 21 21 20 30 34 36 35 31 30 39 39 41 39 42 42 40 29 28 28 22 16 14 18 22 21 19 20 25 30 37 40 37 35 25
35 33 29 31 28 29 23 19 31 40 35 33 32 36 39 38 45 47 47 37 32 27 23 22 17 13 11 15 15 13 16 21 26 33 30 32 32 25
49 39 36 36 30 34 32 31 30 30 37 43 33 38 40 40 40 43 44 43 25 36 29 23 17 15 14 8 16 13 12 15 22 28 22 26 25 23
48 43 41 35 35 32 32 28 32 37 34 36 44 42 33 41 40 39 47 44 22 26 36 25 21 18 15 15 9 9 5 10 17 23 16 21 21 20
42 39 41 43 40 39 31 30 28 28 29 31 35 45 46 27 41 30 34 34 37 43 30 25 22 17 17 14 5 6 2 7 14 19 13 17 19 17
38 38 38 37 37 45 50 38 36 36 35 40 42 41 40 54 32 33 34 40 41 45 45 23 26 23 17 13 6 5 3 3 10 14 13 14 19 15
34 34 40 40 44 45 51 41 42 41 36 35 32 34 44 41 55 52 43 45 38 42 45 37 31 30 16 17 13 7 5 1 6 13 10 12 18 17
31 28 26 39 41 49 38 37 36 41 45 41 39 38 38 43 46 47 54 53 51 44 49 52 42 36 17 19 19 14 11 4 2 7 8 11 17 17
34 34 32 46 48 47 43 35 37 47 48 46 46 46 43 47 46 51 55 54 50 46 44 47 43 40 28 25 22 22 18 13 11 5 4 13 21 18
27 36 47 49 53 49 41 39 38 38 35 39 45 50 47 43 50 46 54 54 59 64 46 48 52 47 37 28 25 26 24 16 14 10 11 12 20 24
35 33 37 46 48 47 46 45 44 43 41 41 43 41 42 41 50 53 49 58 62 68 55 58 53 44 39 28 24 25 22 14 20 17 14 21 27 26
47 52 48 36 34 36 38 36 38 38 43 45 39 42 43 45 49 51 47 47 66 73 71 71 62 55 42 35 27 25 26 23 22 20 19 24 37 29
49 54 56 41 35 35 37 36 36 39 43 45 46 44 46 50 48 48 51 52 58 69 73 74 71 59 46 36 31 27 27 27 25 24 21 25 41 31
54 57 60 55 44 39 38 37 39 40 38 45 44 51 45 48 50 47 52 53 57 57 76 58 66 60 60 48 41 39 32 31 30 27 25 20 45 34
44 44 46 45 39 38 37 37 36 38 42 42 39 55 40 49 54 49 51 55 62 59 82 77 81 75 60 57 56 51 44 34 35 35 37 44 49 36
36 38 40 42 43 38 38 36 35 38 41 38 44 44 44 54 57 50 46 62 62 65 74 88 86 70 59 60 57 57 54 46 36 33 31 42 46 40
36 37 37 40 44 40 41 36 35 38 43 36 43 39 51 47 55 51 46 52 63 56 58 59 74 74 63 63 70 63 56 57 47 43 46 39 40 28
37 36 36 36 39 39 39 36 37 38 43 37 42 39 48 45 53 53 46 54 62 59 55 51 60 70 75 70 67 66 60 57 51 54 53 43 45 36
Wind_Direction_500mb
277 273 263 254 253 252 249 246 252 259 250 244 235 260 240 234 248 244 253 252 257 262 264 268 261 273 288 289 304 320 326 329 337 334 334 332 326 324
292 288 282 259 244 248 249 247 242 247 257 253 233 253 252 234 242 239 253 247 251 253 260 267 268 272 286 291 311 321 327 332 332 333 337 332 332 330
295 293 290 290 281 258 250 246 245 242 246 246 227 249 255 251 245 239 247 251 249 250 252 265 269 268 278 289 306 313 326 332 336 336 341 337 340 339
295 296 299 293 296 272 250 250 253 242 239 244 248 247 248 253 252 249 245 245 246 243 245 253 268 267 279 289 298 315 326 335 337 341 342 345 354 12
295 294 297 298 297 295 260 246 255 256 252 242 246 248 253 251 241 238 238 239 234 237 238 244 266 279 280 287 295 305 319 336 341 343 349 356 11 15
286 287 289 290 288 293 288 268 256 254 250 243 244 247 255 243 233 237 234 237 224 237 233 237 256 286 286 287 291 299 317 334 344 348 354 3 11 17
286 282 283 269 282 279 278 285 269 259 261 250 236 239 250 240 232 231 231 234 228 215 224 234 243 272 274 299 293 294 310 333 345 353 2 15 32 48
279 280 275 283 285 275 270 268 276 276 262 257 252 243 247 259 242 235 230 224 204 226 209 209 219 230 230 307 299 294 305 337 346 357 12 25 48 63
277 275 276 269 271 275 278 270 263 269 270 272 254 239 246 250 249 234 232 228 194 225 201 197 212 207 215 265 287 288 302 339 350 359 23 34 63 68
278 273 269 268 265 262 265 266 265 262 266 272 270 257 234 249 248 240 240 227 194 215 185 188 198 191 205 246 256 270 301 338 352 -0 22 49 80 80
278 275 272 268 262 255 260 261 259 256 258 266 268 269 260 229 227 226 227 208 201 211 192 183 189 185 190 222 226 241 188 329 350 357 22 63 100 91
278 276 284 286 271 262 259 258 254 253 253 247 258 272 264 255 231 232 234 229 194 195 196 190 201 184 176 199 222 208 192 206 354 2 35 74 118 103
279 275 276 272 269 274 268 254 252 246 241 243 248 256 255 257 243 236 222 230 205 213 202 198 205 194 204 179 187 188 182 219 69 13 64 90 125 126
278 277 272 269 268 271 270 260 252 244 243 244 245 242 241 250 243 239 227 225 209 210 195 189 196 205 202 166 168 181 176 178 156 149 95 109 129 121
280 267 261 265 268 266 263 262 253 255 251 245 242 239 236 241 242 237 231 231 217 207 201 205 204 205 179 183 169 164 169 175 166 149 133 145 137 146
296 291 278 267 267 272 263 260 259 255 244 243 241 237 237 227 239 234 232 232 222 213 206 197 200 195 174 184 166 168 170 169 174 150 156 145 161 145
281 282 283 283 273 264 264 261 253 248 240 234 233 234 232 223 234 234 231 225 223 215 195 191 192 185 179 182 174 163 165 169 169 159 144 154 158 147
273 272 274 270 265 263 260 255 251 245 237 232 230 228 231 223 226 228 230 222 222 219 211 190 186 180 180 169 169 171 169 170 168 150 150 161 157 148
269 267 266 264 259 257 252 248 246 239 236 232 232 223 226 224 222 224 224 220 217 217 194 202 195 187 182 172 184 171 179 171 162 152 154 164 169 154
266 261 259 258 252 252 251 247 250 240 225 233 231 225 225 222 219 221 217 220 216 216 210 212 209 209 208 202 195 186 173 173 166 159 166 177 166 162
262 259 260 255 252 251 252 247 246 237 221 233 231 230 218 220 220 218 215 214 215 216 216 208 204 203 224 210 198 183 177 171 175 171 167 163 161 160
263 261 261 257 250 247 246 239 244 240 225 234 229 229 224 217 223 219 210 210 208 208 214 220 215 210 210 213 196 180 171 173 182 175 160 166 174 171
259 256 257 254 251 243 243 237 239 238 225 232 231 223 232 225 212 217 206 205 196 198 200 194 204 204 201 201 193 182 172 172 174 173 176 175 174 177
Wind_Speed_850mb
26 28 33 30 33 36 39 37 38 39 34 32 22 29 36 45 46 32 32 28 23 20 19 20 20 19 23 19 23 29 29 28 34 42 47 46 40 40
16 24 22 25 30 31 36 35 38 40 43 30 22 29 26 38 42 34 37 28 27 21 18 17 18 17 17 15 21 25 32 32 37 43 45 49 45 46
17 17 21 23 23 26 35 34 36 39 41 35 26 33 33 31 40 37 37 35 28 21 15 14 14 16 17 16 21 25 28 32 34 42 46 48 48 47
23 22 19 21 23 23 29 35 34 34 39 38 35 42 39 40 40 39 33 33 29 24 18 15 13 15 18 19 21 22 25 29 35 42 46 47 44 37
25 24 22 20 24 19 28 30 33 33 34 33 39 45 44 42 43 43 39 32 28 25 23 19 15 14 18 22 22 22 23 28 33 40 46 39 38 34
28 29 26 22 21 21 20 30 34 36 35 31 30 39 39 41 39 42 42 40 29 28 28 22 16 14 18 22 21 19 20 25 30 37 40 37 35 25
35 33 29 31 28 29 23 19 31 40 35 33 32 36 39 38 45 47 47 37 32 27 23 22 17 13 11 15 15 13 16 21 26 33 30 32 32 25
49 39 36 36 30 34 32 31 30 30 37 43 33 38 40 40 40 43 44 43 25 36 29 23 17 15 14 8 16 13 12 15 22 28 22 26 25 23
48 43 41 35 35 32 32 28 32 37 34 36 44 42 33 41 40 39 47 44 22 26 36 25 21 18 15 15 9 9 5 10 17 23 16 21 21 20
42 39 41 43 40 39 31 30 28 28 29 31 35 45 46 27 41 30 34 34 37 43 30 25 22 17 17 14 5 6 2 7 14 19 13 17 19 17
38 38 38 37 37 45 50 38 36 36 35 40 42 41 40 54 32 33 34 40 41 45 45 23 26 23 17 13 6 5 3 3 10 14 13 14 19 15
34 34 40 40 44 45 51 41 42 41 36 35 32 34 44 41 55 52 43 45 38 42 45 37 31 30 16 17 13 7 5 1 6 13 10 12 18 17
31 28 26 39 41 49 38 37 36 41 45 41 39 38 38 43 46 47 54 53 51 44 49 52 42 36 17 19 19 14 11 4 2 7 8 11 17 17
34 34 32 46 48 47 43 35 37 47 48 46 46 46 43 47 46 51 55 54 50 46 44 47 43 40 28 25 22 22 18 13 11 5 4 13 21 18
27 36 47 49 53 49 41 39 38 38 35 39 45 50 47 43 50 46 54 54 59 64 46 48 52 47 37 28 25 26 24 16 14 10 11 12 20 24
35 33 37 46 48 47 46 45 44 43 41 41 43 41 42 41 50 53 49 58 62 68 55 58 53 44 39 28 24 25 22 14 20 17 14 21 27 26
47 52 48 36 34 36 38 36 38 38 43 45 39 42 43 45 49 51 47 47 66 73 71 71 62 55 42 35 27 25 26 23 22 20 19 24 37 29
49 54 56 41 35 35 37 36 36 39 43 45 46 44 46 50 48 48 51 52 58 69 73 74 71 59 46 36 31 27 27 27 25 24 21 25 41 31
54 57 60 55 44 39 38 37 39 40 38 45 44 51 45 48 50 47 52 53 57 57 76 58 66 60 60 48 41 39 32 31 30 27 25 20 45 34
44 44 46 45 39 38 37 37 36 38 42 42 39 55 40 49 54 49 51 55 62 59 82 77 81 75 60 57 56 51 44 34 35 35 37 44 49 36
36 38 40 42 43 38 38 36 35 38 41 38 44 44 44 54 57 50 46 62 62 65 74 88 86 70 59 60 57 57 54 46 36 33 31 42 46 40
36 37 37 40 44 40 41 36 35 38 43 36 43 39 51 47 55 51 46 52 63 56 58 59 74 74 63 63 70 63 56 57 47 43 46 39 40 28
37 36 36 36 39 39 39 36 37 38 43 37 42 39 48 45 53 53 46 54 62 59 55 51 60 70 75 70 67 66 60 57 51 54 53 43 45 36
Wind_Direction_850mb
277 273 263 254 253 252 249 246 252 259 250 244 235 260 240 234 248 244 253 252 257 262 264 268 261 273 288 289 304 320 326 329 337 334 334 332 326 324
292 288 282 259 244 248 249 247 242 247 257 253 233 253 252 234 242 239 253 247 251 253 260 267 268 272 286 291 311 321 327 332 332 333 337 332 332 330
295 293 290 290 281 258 250 246 245 242 246 246 227 249 255 251 245 239 247 251 249 250 252 265 269 268 278 289 306 313 326 332 336 336 341 337 340 339
295 296 299 293 296 272 250 250 253 242 239 244 248 247 248 253 252 249 245 245 246 243 245 253 268 267 279 289 298 315 326 335 337 341 342 345 354 12
295 294 297 298 297 295 260 246 255 256 252 242 246 248 253 251 241 238 238 239 234 237 238 244 266 279 280 287 295 305 319 336 341 343 349 356 11 15
286 287 289 290 288 293 288 268 256 254 250 243 244 247 255 243 233 237 234 237 224 237 233 237 256 286 286 287 291 299 317 334 344 348 354 3 11 17
286 282 283 269 282 279 278 285 269 259 261 250 236 239 250 240 232 231 231 234 228 215 224 234 243 272 274 299 293 294 310 333 345 353 2 15 32 48
279 280 275 283 285 275 270 268 276 276 262 257 252 243 247 259 242 235 230 224 204 226 209 209 219 230 230 307 299 294 305 337 346 357 12 25 48 63
277 275 276 269 271 275 278 270 263 269 270 272 254 239 246 250 249 234 232 228 194 225 201 197 212 207 215 265 287 288 302 339 350 359 23 34 63 68
278 273 269 268 265 262 265 266 265 262 266 272 270 257 234 249 248 240 240 227 194 215 185 188 198 191 205 246 256 270 301 338 352 -0 22 49 80 80
278 275 272 268 262 255 260 261 259 256 258 266 268 269 260 229 227 226 227 208 201 211 192 183 189 185 190 222 226 241 188 329 350 357 22 63 100 91
278 276 284 286 271 262 259 258 254 253 253 247 258 272 264 255 231 232 234 229 194 195 196 190 201 184 176 199 222 208 192 206 354 2 35 74 118 103
279 275 276 272 269 274 268 254 252 246 241 243 248 256 255 257 243 236 222 230 205 213 202 198 205 194 204 179 187 188 182 219 69 13 64 90 125 126
278 277 272 269 268 271 270 260 252 244 243 244 245 242 241 250 243 239 227 225 209 210 195 189 196 205 202 166 168 181 176 178 156 149 95 109 129 121
280 267 261 265 268 266 263 262 253 255 251 245 242 239 236 241 242 237 231 231 217 207 201 205 204 205 179 183 169 164 169 175 166 149 133 145 137 146
296 291 278 267 267 272 263 260 259 255 244 243 241 237 237 227 239 234 232 232 222 213 206 197 200 195 174 184 166 168 170 169 174 150 156 145 161 145
281 282 283 283 273 264 264 261 253 248 240 234 233 234 232 223 234 234 231 225 223 215 195 191 192 185 179 182 174 163 165 169 169 159 144 154 158 147
273 272 274 270 265 263 260 255 251 245 237 232 230 228 231 223 226 228 230 222 222 219 211 190 186 180 180 169 169 171 169 170 168 150 150 161 157 148
269 267 266 264 259 257 252 248 246 239 236 232 232 223 226 224 222 224 224 220 217 217 194 202 195 187 182 172 184 171 179 171 162 152 154 164 169 154
266 261 259 258 252 252 251 247 250 240 225 233 231 225 225 222 219 221 217 220 216 216 210 212 209 209 208 202 195 186 173 173 166 159 166 177 166 162
262 259 260 255 252 251 252 247 246 237 221 233 231 230 218 220 220 218 215 214 215 216 216 208 204 203 224 210 198 183 177 171 175 171 167 163 161 160
263 261 261 257 250 247 246 239 244 240 225 234 229 229 224 217 223 219 210 210 208 208 214 220 215 210 210 213 196 180 171 173 182 175 160 166 174 171
259 256 257 254 251 243 243 237 239 238 225 232 231 223 232 225 212 217 206 205 196 198 200 194 204 204 201 201 193 182 172 172 174 173 176 175 174 177